This is the latest recevied weather packets stored in our database for station/object DG7YEO-13. If no packets are shown the sender has not sent any weather packets the latest 10 day(s).
| Time | Temp. | Humidity | Pressure | Rain* | Wind** | Luminosity | Snow |
|---|---|---|---|---|---|---|---|
| 1787757425 | 22.22° C | 68% | 1016.1 hPa | 0 mm | - | - | - |
| 1787756526 | 22.22° C | 68% | 1016.1 hPa | 0 mm | - | - | - |
| 1787755625 | 22.22° C | 69% | 1016.1 hPa | 0 mm | - | - | - |
| 1787754725 | 22.22° C | 68% | 1016.2 hPa | 0 mm | - | - | - |
| 1787753825 | 22.22° C | 68% | 1016.3 hPa | 0 mm | - | - | - |
| 1787752926 | 22.22° C | 67% | 1016.2 hPa | 0 mm | - | - | - |
| 1787752025 | 22.78° C | 66% | 1016.3 hPa | 0 mm | - | - | - |
| 1787751126 | 22.78° C | 67% | 1016.3 hPa | 0 mm | - | - | - |
| 1787750226 | 22.22° C | 66% | 1016.4 hPa | 0 mm | - | - | - |
| 1787749326 | 22.22° C | 66% | 1016.6 hPa | 0 mm | - | - | - |
| 1787748425 | 22.78° C | 64% | 1016.4 hPa | 0 mm | - | - | - |
| 1787747525 | 22.78° C | 64% | 1016.3 hPa | 0 mm | - | - | - |
| 1787746625 | 22.78° C | 65% | 1016.4 hPa | 0 mm | - | - | - |
| 1787745726 | 22.22° C | 65% | 1016.5 hPa | 0 mm | - | - | - |
| 1787744825 | 21.67° C | 66% | 1016.6 hPa | 0 mm | - | - | - |
| 1787742125 | 21.11° C | 68% | 1016.7 hPa | 0 mm | - | - | - |
| 1787741225 | 21.11° C | 67% | 1016.9 hPa | 0 mm | - | - | - |
| 1787740325 | 21.11° C | 67% | 1016.8 hPa | 0 mm | - | - | - |
| 1787739425 | 20.56° C | 67% | 1016.7 hPa | 0 mm | - | - | - |
| 1787738525 | 20.56° C | 67% | 1016.8 hPa | 0 mm | - | - | - |
| 1787737625 | 20.56° C | 66% | 1016.9 hPa | 0 mm | - | - | - |
| 1787736726 | 21.11° C | 66% | 1016.8 hPa | 0 mm | - | - | - |
| 1787735825 | 21.11° C | 66% | 1016.8 hPa | 0 mm | - | - | - |
| 1787734925 | 20.56° C | 67% | 1016.7 hPa | 0 mm | - | - | - |
| 1787734025 | 20.56° C | 67% | 1016.7 hPa | 0 mm | - | - | - |
* Rain latest hour (hover to see other rain measurements)
** Current wind speed in m/s (hover to see current wind gust speed)